Torna al catalogo

NOAA 16 DEB

AttivoSSO
NORAD 42368·DEBRIS·🇺🇸 United States

Lanciato Sep 21, 2000 da Vandenberg Space Force Base

Loading…

Prossimi Passaggi (prossime 24 ore)

TLE

AggiornatoSource: Space-Track

Epoca: Sep 14, 2026, 11:09 UTC

1 42368U 00055RL  26257.46489338  .00002517  00000-0  99383-3 0  9990
2 42368  98.7161 339.5051 0012570 158.7878 201.3827 14.29900004540014

Traccia NOAA 16 DEB in tempo reale con AllMySat

Download on the App Store